This demonstration page uses our WeatherBlox Daily Observations layout. Learn more.

Left ArrowRight Arrow

Hourly Observations for January 20, 2020

Temp ( °F °C ) Dew Point ( °F °C ) Humidity (%) Winds ( mph kmh ) Pressure ( in mb ) Visibility ( mi km ) Precip ( " mm )
12:53 am 00:53 Clear 30 -1.1 15 -9.4 54 54 NNW 13 20 30.28 1025 10 16 0.00 0.00
1:53 am 01:53 Clear 29 -1.7 14 -10 54 54 NNW 9 15 30.27 1025 10 16 0.00 0.00
2:53 am 02:53 Clear 28 -2.2 14 -10 56 56 N 9 15 30.28 1026 10 16 0.00 0.00
3:53 am 03:53 Clear 27 -2.8 15 -9.4 61 61 NNW 7 11 30.28 1025 10 16 0.00 0.00
4:53 am 04:53 Clear 26 -3.3 15 -9.4 63 63 NW 10 17 30.29 1026 10 16 0.00 0.00
5:53 am 05:53 Clear 26 -3.3 15 -9.4 63 63 NNW 10 17 30.30 1026 10 16 0.00 0.00
6:53 am 06:53 Clear 25 -3.9 15 -9.4 66 66 NNW 7 11 30.34 1027 10 16 0.00 0.00
7:53 am 07:53 Sunny 24 -4.4 15 -9.4 68 68 NNW 7 11 30.37 1029 10 16 0.00 0.00
8:53 am 08:53 Sunny 26 -3.3 15 -9.4 63 63 NW 8 13 30.40 1030 10 16 0.00 0.00
9:53 am 09:53 Sunny 28 -2.2 16 -8.9 60 60 NW 10 17 30.41 1030 10 16 0.00 0.00
10:53 am 10:53 Sunny 30 -1.1 17 -8.3 58 58 N 9 15 30.42 1030 10 16 0.00 0.00
11:53 am 11:53 Sunny 32 0 17 -8.3 54 54 NW 10 17 30.42 1030 10 16 0.00 0.00
12:53 pm 12:53 Sunny 34 1.1 17 -8.3 50 50 VRB 7 11 30.39 1029 10 16 0.00 0.00
1:53 pm 13:53 Sunny 35 1.7 18 -7.8 50 50 WNW 15 24 30.35 1028 10 16 0.00 0.00
2:53 pm 14:53 Sunny 36 2.2 17 -8.3 46 46 NNW 13 20 30.34 1028 10 16 0.00 0.00
3:53 pm 15:53 Sunny 37 2.8 17 -8.3 44 44 NNW 13 20 30.34 1027 10 16 0.00 0.00
4:53 pm 16:53 Sunny 36 2.2 17 -8.3 46 46 NNW 9 15 30.36 1028 10 16 0.00 0.00
5:53 pm 17:53 Sunny 33 0.6 16 -8.9 49 49 NNW 7 11 30.36 1028 10 16 0.00 0.00
6:53 pm 18:53 Clear 31 -0.6 15 -9.4 52 52 NNW 13 20 30.37 1029 10 16 0.00 0.00
7:53 pm 19:53 Clear 29 -1.7 14 -10 54 54 NNW 8 13 30.39 1029 10 16 0.00 0.00
8:53 pm 20:53 Clear 28 -2.2 14 -10 56 56 NNW 13 20 30.40 1029 10 16 0.00 0.00
9:53 pm 21:53 Clear 27 -2.8 14 -10 58 58 NNW 10 17 30.41 1030 10 16 0.00 0.00
10:53 pm 22:53 Clear 26 -3.3 14 -10 60 60 NW 7 11 30.41 1030 10 16 0.00 0.00
11:53 pm 23:53 Clear 26 -3.3 13 -10.6 57 57 NNW 6 9 30.39 1029 10 16 0.00 0.00

Powered by AerisWeather